Change the Weather History Date:

Sunday, June 24, 2012

  Actual Average Record
Temperature  
Mean Temperature 86 °F -  
Max Temperature 91 °F 84 °F 91 °F (2012)
Min Temperature 81 °F 74 °F 46 °F (1997)
Cooling Degree Days 21    
Growing Degree Days 36 (Base 50)    
Moisture  
Dew Point 73 °F    
Average Humidity 66    
Maximum Humidity 77    
Minimum Humidity 55    
Precipitation  
Precipitation 0.00 in - - ()
Sea Level Pressure  
Sea Level Pressure 30.06 in    
Wind  
Wind Speed 10 mph (ESE)    
Max Wind Speed 15 mph    
Max Gust Speed 20 mph    
Visibility 10 miles    
Events      
Averages and records for this station are not official NWS values.
T = Trace of Precipitation, MM = Missing Value Source: NWS Daily Summary

Daily Weather History Graph

Daily Weather History Graph

Search for Another Location

Airport or City:

Trip Planner

Search our weather history database for the weather conditions in past years. The results will help you decide how hot, cold, wet, or windy it might be!

Date:

Astronomy

Jun. 24, 2012 Rise Set
Actual Time 5:48 AM AST 7:01 PM AST
Civil Twilight 5:24 AM AST 7:26 PM AST
Nautical Twilight 4:55 AM AST 7:54 PM AST
Astronomical Twilight 4:25 AM AST 8:24 PM AST
Moon 10:08 AM AST (6/24) 10:44 PM AST (6/24)
Length of Visible Light 14h 01m
Length of Day
13h 13m
Waxing Crescent, 24% of the Moon is Illuminated
Jun 24
Waxing Crescent
Jun 26
First Quarter
Jul 3
Full
Jul 10
Last Quarter
Jul 19
New

Hourly Weather History & Observations

Time (AST) Temp. Heat Index Dew Point Humidity Pressure Visibility Wind Dir Wind Speed Gust Speed Precip Events Conditions
12:53 AM 82.0 °F 86.7 °F 72.0 °F 71% 30.08 in 10.0 mi ESE 9.2 mph - N/A   Overcast
1:53 AM 82.0 °F 86.7 °F 72.0 °F 71% 30.07 in 10.0 mi ESE 10.4 mph - N/A   Overcast
2:53 AM 82.0 °F 87.4 °F 73.0 °F 74% 30.05 in 10.0 mi ESE 9.2 mph - N/A   Overcast
3:53 AM 81.0 °F 85.8 °F 73.0 °F 77% 30.05 in 10.0 mi ESE 6.9 mph - N/A   Overcast
4:53 AM 81.0 °F 85.8 °F 73.0 °F 77% 30.06 in 10.0 mi ESE 6.9 mph - N/A   Overcast
5:53 AM 81.0 °F 85.8 °F 73.0 °F 77% 30.07 in 10.0 mi SE 5.8 mph - N/A   Overcast
6:53 AM 82.0 °F 87.4 °F 73.0 °F 74% 30.08 in 10.0 mi SE 5.8 mph - N/A   Overcast
7:53 AM 84.9 °F 91.4 °F 73.0 °F 67% 30.08 in 10.0 mi SE 11.5 mph - N/A   Overcast
8:53 AM 87.1 °F 94.5 °F 73.0 °F 63% 30.09 in 10.0 mi ESE 10.4 mph - N/A   Overcast
9:18 AM 87.8 °F 93.8 °F 71.6 °F 58% 30.08 in 10.0 mi ESE 13.8 mph - N/A   Overcast
9:53 AM 88.0 °F 93.8 °F 71.1 °F 57% 30.08 in 10.0 mi ESE 13.8 mph 19.6 mph N/A   Overcast
10:53 AM 89.1 °F 96.0 °F 72.0 °F 57% 30.08 in 10.0 mi East 10.4 mph 18.4 mph N/A   Overcast
11:33 AM 89.6 °F 98.2 °F 73.4 °F 59% 30.08 in 10.0 mi ESE 15.0 mph - N/A   Overcast
11:53 AM 89.1 °F 97.0 °F 73.0 °F 59% 30.08 in 10.0 mi ESE 15.0 mph - N/A   Overcast
12:53 PM 89.1 °F 97.0 °F 73.0 °F 59% 30.07 in 10.0 mi ESE 13.8 mph - N/A   Mostly Cloudy
1:35 PM 91.4 °F 100.1 °F 73.4 °F 55% 30.06 in 10.0 mi ESE 13.8 mph 18.4 mph N/A   Overcast
1:53 PM 90.0 °F 99.0 °F 73.9 °F 59% 30.05 in 10.0 mi ESE 13.8 mph - N/A   Overcast
2:13 PM 89.6 °F 98.2 °F 73.4 °F 59% 30.05 in 10.0 mi ESE 11.5 mph - N/A   Overcast
2:53 PM 89.1 °F 98.0 °F 73.9 °F 61% 30.04 in 10.0 mi ESE 12.7 mph 18.4 mph N/A   Overcast
3:44 PM 87.8 °F 95.6 °F 73.4 °F 62% 30.03 in 10.0 mi ESE 15.0 mph - N/A   Overcast
3:53 PM 88.0 °F 94.7 °F 72.0 °F 59% 30.03 in 10.0 mi East 12.7 mph - N/A   Overcast
4:53 PM 86.0 °F 92.2 °F 72.0 °F 63% 30.03 in 10.0 mi ESE 13.8 mph 18.4 mph N/A   Overcast
5:53 PM 84.9 °F 90.1 °F 71.1 °F 63% 30.03 in 10.0 mi ESE 11.5 mph - N/A   Overcast
6:49 PM 82.4 °F 87.2 °F 71.6 °F 70% 30.04 in 10.0 mi East 10.4 mph 17.3 mph N/A   Overcast
6:53 PM 82.9 °F 88.0 °F 72.0 °F 69% 30.04 in 10.0 mi East 6.9 mph - N/A   Overcast
7:53 PM 82.9 °F 88.0 °F 72.0 °F 69% 30.06 in 10.0 mi ESE 10.4 mph - N/A   Overcast
8:53 PM 82.0 °F 86.7 °F 72.0 °F 71% 30.06 in 10.0 mi ESE 6.9 mph - N/A   Overcast
9:53 PM 82.0 °F 86.7 °F 72.0 °F 71% 30.07 in 10.0 mi ESE 8.1 mph - N/A   Overcast
10:53 PM 82.9 °F 89.4 °F 73.9 °F 74% 30.07 in 10.0 mi ESE 8.1 mph - N/A   Overcast
11:53 PM 82.0 °F 86.7 °F 72.0 °F 71% 30.07 in 10.0 mi ESE 8.1 mph - N/A   Overcast